Eilat, Israel

6:25 AM IDT on August 28, 2016 (GMT +0300)
Eilat

Weather History for LLET - August, 2013

Change the Weather History Date:

Thursday, August 1, 2013

  Actual Average Record
Temperature  
Mean Temperature 89 °F -  
Max Temperature 101 °F 102 °F 118 °F (2002)
Min Temperature 77 °F 81 °F 77 °F (2013)
Cooling Degree Days 24    
Growing Degree Days 39 (Base 50)    
Moisture  
Dew Point 49 °F    
Average Humidity 21    
Maximum Humidity 34    
Minimum Humidity 8    
Precipitation  
Precipitation 0.00 in -13.12 in - ()
Sea Level Pressure  
Sea Level Pressure 29.70 in    
Wind  
Wind Speed 5 mph ()    
Max Wind Speed 10 mph    
Max Gust Speed -    
Averages and records for this station are not official NWS values.
T = Trace of Precipitation, MM = Missing Value Source: Averaged Metar Reports

Daily Weather History Graph

Daily Weather History Graph

Search for Another Location

Airport or City:

Trip Planner

Search our weather history database for the weather conditions in past years. The results will help you decide how hot, cold, wet, or windy it might be!

Date:

Astronomy

Aug. 01, 2013 Rise Set
Actual Time 5:59 AM IDT 7:32 PM IDT
Civil Twilight 5:34 AM IDT 7:58 PM IDT
Nautical Twilight 5:03 AM IDT 8:29 PM IDT
Astronomical Twilight 4:30 AM IDT 9:01 PM IDT
Moon 1:22 AM IDT (8/1) 3:21 PM IDT (8/1)
Length of Visible Light 14h 24m
Length of Day
13h 32m
Waning Crescent, 26% of the Moon is Illuminated
Aug 1
Waning Crescent
Aug 7
New
Aug 14
First Quarter
Aug 21
Full
Aug 28
Last Quarter

Hourly Weather History & Observations

Time (IDT) Temp. Heat Index Dew Point Humidity Pressure Visibility Wind Dir Wind Speed Gust Speed Precip Events Conditions
3:00 AM 84 °F - 47 °F 18% 29.69 in - North 2.3 mph - -  
5:50 AM 78.8 °F - 48.2 °F 34% 29.71 in - Variable 2.3 mph - N/A   Clear
6:50 AM 78.8 °F - 48.2 °F 34% 29.71 in - Variable 3.5 mph - N/A   Clear
7:50 AM 86.0 °F - 46.4 °F 25% 29.71 in - NE 5.8 mph - N/A   Clear
8:50 AM 89.6 °F - 46.4 °F 22% 29.74 in - NE 8.1 mph - N/A   Clear
9:00 AM 90 °F - 48 °F 15% 29.73 in - ENE 4.6 mph - -  
9:50 AM 91.4 °F - 46.4 °F 21% 29.74 in - ENE 9.2 mph - N/A   Clear
10:50 AM 95.0 °F - 48.2 °F 20% 29.71 in - NE 6.9 mph - N/A   Clear
11:50 AM 96.8 °F - 48.2 °F 19% 29.71 in - NE 6.9 mph - N/A   Clear
12:50 PM 98.6 °F - 50.0 °F 19% 29.71 in - South 6.9 mph - N/A   Clear
1:50 PM 96.8 °F - 48.2 °F 19% 29.68 in - SSW 9.2 mph - N/A   Clear
2:50 PM 100.4 °F - 50.0 °F 18% 29.68 in - SSW 9.2 mph - N/A   Clear
3:00 PM 100 °F - 45 °F 8% 29.65 in - South 4.6 mph - -  
3:50 PM 100.4 °F - 48.2 °F 17% 29.65 in - SSW 10.4 mph - N/A   Clear
4:50 PM 100.4 °F - 50.0 °F 18% 29.65 in - SSW 9.2 mph - N/A   Clear
5:50 PM 96.8 °F 95.1 °F 55.4 °F 25% 29.65 in - SSW 9.2 mph - N/A   Clear
6:50 PM 95.0 °F - 51.8 °F 23% 29.65 in - SSW 10.4 mph - N/A   Clear
7:50 PM 95.0 °F - 46.4 °F 19% 29.68 in - SW 5.8 mph - N/A   Clear
8:50 PM 93.2 °F - 50.0 °F 23% 29.71 in - SW 5.8 mph - N/A   Clear
9:00 PM 92 °F - 47 °F 13% 29.70 in - SW 2.3 mph - -  
9:50 PM 91.4 °F 89.9 °F 57.2 °F 31% 29.71 in - Variable 3.5 mph - N/A   Clear
10:50 PM 89.6 °F 87.3 °F 53.6 °F 29% 29.74 in - Variable 2.3 mph - N/A   Clear
11:50 PM 91.4 °F - 48.2 °F 23% 29.74 in - NNE 10.4 mph - N/A   Clear